FDX81 YSSY-HECA

Flight info

Callsign FDX81
Flight time N/A
Altitude 30000
Route KADOM A576 PKS J141 LEC T21 WENER/N0495F320 T21 PD N509 TATOD/N0498F340 N509 ELATI N640 ENSET/N0491F360 N640 KAT R461 MDI M300 KADOL/N0486F380 M300 EMURU N563 SODEX/N0498F340 N563 BOSEV/N0485F380 N563 IMGUX P699 SOGAT A453 BHR B457 NARMI J735 TAYMA N697 BPN H999 HIL N697 KITOT
Aircraft B77L/H-SDE1E2E3FGHIJ2J3J4J5M1RWXY/LB1D1

Departure

Time 2026-05-06 05:20
Airport Sydney Kingsford Smith International Airport (YSSY)

Arrival

Time N/A
Airport Cairo International Airport (HECA)
Time Latitude Longitude Altitude Speed Heading
2026-05-06 04:50 -33.93046 151.16768 25 ft 0 kts 257°
2026-05-06 05:00 -33.93044 151.16776 29 ft 3 kts 257°
2026-05-06 05:00 -33.93040 151.16798 30 ft 3 kts 257°
2026-05-06 05:00 -33.93036 151.16820 30 ft 3 kts 257°
2026-05-06 05:01 -33.93031 151.16842 30 ft 3 kts 257°
2026-05-06 05:01 -33.93027 151.16864 30 ft 3 kts 261°
2026-05-06 05:01 -33.93026 151.16886 30 ft 2 kts 280°
2026-05-06 05:01 -33.93030 151.16903 30 ft 3 kts 298°
2026-05-06 05:02 -33.93030 151.16906 30 ft 0 kts 345°
2026-05-06 05:03 -33.93042 151.16910 30 ft 3 kts 345°
2026-05-06 05:03 -33.93060 151.16916 30 ft 3 kts 345°
2026-05-06 05:03 -33.93078 151.16921 30 ft 3 kts 345°
2026-05-06 05:03 -33.93097 151.16927 29 ft 3 kts 345°
2026-05-06 05:04 -33.93115 151.16933 25 ft 3 kts 345°
2026-05-06 05:04 -33.93118 151.16934 25 ft 0 kts 345°
2026-05-06 05:07 -33.93096 151.16926 28 ft 9 kts 345°
2026-05-06 05:08 -33.92999 151.16937 29 ft 17 kts 44°
2026-05-06 05:08 -33.92964 151.17072 27 ft 17 kts 79°
2026-05-06 05:08 -33.92955 151.17215 27 ft 17 kts 92°
2026-05-06 05:08 -33.92969 151.17356 27 ft 17 kts 100°
2026-05-06 05:09 -33.92990 151.17487 34 ft 5 kts 101°
2026-05-06 05:09 -33.92992 151.17501 34 ft 7 kts 101°
2026-05-06 05:09 -33.93064 151.17529 34 ft 19 kts 188°
2026-05-06 05:10 -33.93195 151.17543 34 ft 19 kts 168°
2026-05-06 05:10 -33.93292 151.17566 34 ft 0 kts 170°
2026-05-06 05:11 -33.93293 151.17567 34 ft 1 kts 170°
2026-05-06 05:12 -33.93340 151.17571 34 ft 14 kts 188°
2026-05-06 05:12 -33.93390 151.17447 28 ft 9 kts 258°
2026-05-06 05:12 -33.93391 151.17445 28 ft 0 kts 258°
2026-05-06 05:12 -33.93391 151.17441 28 ft 1 kts 258°
2026-05-06 05:13 -33.93392 151.17439 28 ft 0 kts 258°
2026-05-06 05:15 -33.93392 151.17438 28 ft 1 kts 258°
2026-05-06 05:15 -33.93403 151.17373 22 ft 18 kts 258°
2026-05-06 05:15 -33.93436 151.17180 24 ft 24 kts 261°
2026-05-06 05:16 -33.93337 151.17046 29 ft 24 kts 330°
2026-05-06 05:16 -33.93196 151.16948 27 ft 24 kts 346°
2026-05-06 05:16 -33.93034 151.16915 28 ft 24 kts
2026-05-06 05:16 -33.92974 151.17003 27 ft 0 kts 75°
2026-05-06 05:18 -33.92972 151.17009 25 ft 4 kts 75°
2026-05-06 05:18 -33.92962 151.17081 27 ft 13 kts 88°
2026-05-06 05:19 -33.93001 151.17173 27 ft 13 kts 148°
2026-05-06 05:19 -33.93075 151.17195 27 ft 0 kts 168°
2026-05-06 05:20 -33.93198 151.17225 29 ft 52 kts 168°
2026-05-06 05:20 -33.93827 151.17390 22 ft 131 kts 168°
2026-05-06 05:20 -33.94955 151.17680 68 ft 192 kts 167°
2026-05-06 05:20 -33.96280 151.17988 717 ft 202 kts 168°
2026-05-06 05:21 -33.97723 151.18021 1098 ft 217 kts 197°
2026-05-06 05:21 -33.98987 151.17050 1691 ft 222 kts 231°
2026-05-06 05:21 -33.99850 151.15405 2066 ft 242 kts 242°
2026-05-06 05:21 -34.00639 151.13589 2613 ft 245 kts 250°
2026-05-06 05:22 -34.00795 151.11557 2949 ft 250 kts 287°
2026-05-06 05:22 -34.00095 151.09607 3285 ft 258 kts 298°
2026-05-06 05:22 -33.99266 151.07656 3833 ft 264 kts 297°
2026-05-06 05:22 -33.98451 151.05661 4469 ft 267 kts 296°
2026-05-06 05:23 -33.97650 151.03628 5124 ft 270 kts 295°
2026-05-06 05:23 -33.96860 151.01572 5799 ft 271 kts 295°
2026-05-06 05:23 -33.95315 150.97424 7114 ft 275 kts 294°
2026-05-06 05:24 -33.94543 150.95307 7726 ft 277 kts 294°
2026-05-06 05:24 -33.93769 150.93168 8343 ft 280 kts 294°
2026-05-06 05:24 -33.92990 150.91002 8929 ft 283 kts 293°
2026-05-06 05:24 -33.92206 150.88815 9515 ft 286 kts 293°
2026-05-06 05:25 -33.91415 150.86604 10085 ft 289 kts 293°
2026-05-06 05:25 -33.90607 150.84342 10400 ft 303 kts 293°
2026-05-06 05:25 -33.89749 150.81937 10545 ft 322 kts 293°
2026-05-06 05:25 -33.88840 150.79390 10690 ft 341 kts 293°
2026-05-06 05:26 -33.87880 150.76701 10950 ft 356 kts 293°
2026-05-06 05:26 -33.86890 150.73929 11369 ft 364 kts 293°
2026-05-06 05:26 -33.85885 150.71115 11830 ft 367 kts 293°
2026-05-06 05:26 -33.84886 150.68322 12406 ft 368 kts 293°
2026-05-06 05:27 -33.83874 150.65492 12973 ft 369 kts 293°
2026-05-06 05:27 -33.82853 150.62643 13515 ft 371 kts 293°
2026-05-06 05:27 -33.81828 150.59785 14032 ft 373 kts 293°
2026-05-06 05:27 -33.80796 150.56907 14466 ft 376 kts 293°
2026-05-06 05:28 -33.79756 150.54010 14930 ft 379 kts 293°
2026-05-06 05:28 -33.78708 150.51097 15385 ft 381 kts 293°
2026-05-06 05:28 -33.77654 150.48166 15825 ft 383 kts 293°
2026-05-06 05:28 -33.76593 150.45219 16257 ft 386 kts 293°
2026-05-06 05:29 -33.75521 150.42243 16684 ft 388 kts 293°
2026-05-06 05:29 -33.74444 150.39255 17113 ft 391 kts 292°
2026-05-06 05:29 -33.73358 150.36245 17532 ft 394 kts 293°
2026-05-06 05:29 -33.72264 150.33221 17940 ft 396 kts 292°
2026-05-06 05:30 -33.71170 150.30163 18380 ft 398 kts 291°
2026-05-06 05:30 -33.70249 150.27021 18752 ft 400 kts 287°
2026-05-06 05:30 -33.69391 150.23837 19115 ft 402 kts 287°
2026-05-06 05:30 -33.68531 150.20634 19493 ft 404 kts 287°
2026-05-06 05:31 -33.67666 150.17421 19891 ft 405 kts 288°
2026-05-06 05:31 -33.66790 150.14187 20264 ft 407 kts 288°
2026-05-06 05:31 -33.65912 150.10953 20618 ft 409 kts 288°
2026-05-06 05:31 -33.65027 150.07704 20989 ft 411 kts 288°
2026-05-06 05:32 -33.64145 150.04475 21318 ft 412 kts 288°
2026-05-06 05:32 -33.63249 150.01202 21672 ft 414 kts 288°
2026-05-06 05:32 -33.62346 149.97904 22022 ft 417 kts 288°
2026-05-06 05:32 -33.61439 149.94595 22377 ft 419 kts 288°
2026-05-06 05:33 -33.60525 149.91269 22725 ft 421 kts 288°
2026-05-06 05:33 -33.59604 149.87919 23056 ft 423 kts 288°
2026-05-06 05:33 -33.58678 149.84558 23388 ft 425 kts 288°
2026-05-06 05:33 -33.57748 149.81183 23715 ft 427 kts 288°
2026-05-06 05:34 -33.56812 149.77791 24001 ft 429 kts 288°
2026-05-06 05:34 -33.55886 149.74438 24285 ft 430 kts 288°
2026-05-06 05:34 -33.54931 149.70986 24593 ft 431 kts 288°
2026-05-06 05:34 -33.53997 149.67614 24880 ft 433 kts 288°
2026-05-06 05:35 -33.53046 149.64186 25162 ft 434 kts 288°
2026-05-06 05:35 -33.52092 149.60749 25442 ft 436 kts 288°
2026-05-06 05:35 -33.51131 149.57292 25725 ft 437 kts 288°
2026-05-06 05:35 -33.50166 149.53824 26001 ft 438 kts 288°
2026-05-06 05:36 -33.49200 149.50357 26278 ft 439 kts 288°
2026-05-06 05:36 -33.48230 149.46880 26548 ft 441 kts 288°
2026-05-06 05:36 -33.47256 149.43394 26818 ft 442 kts 289°
2026-05-06 05:36 -33.46276 149.39890 27081 ft 444 kts 289°
2026-05-06 05:37 -33.45294 149.36384 27332 ft 445 kts 289°
2026-05-06 05:37 -33.44322 149.32915 27603 ft 446 kts 289°
2026-05-06 05:37 -33.43334 149.29393 27873 ft 447 kts 289°
2026-05-06 05:37 -33.42339 149.25853 28114 ft 448 kts 289°
2026-05-06 05:38 -33.41343 149.22316 28350 ft 450 kts 289°
2026-05-06 05:38 -33.40343 149.18764 28589 ft 451 kts 289°
2026-05-06 05:38 -33.39338 149.15203 28817 ft 452 kts 289°
2026-05-06 05:38 -33.38331 149.11639 29040 ft 453 kts 289°
2026-05-06 05:39 -33.37321 149.08067 29262 ft 454 kts 289°
2026-05-06 05:39 -33.36314 149.04511 29475 ft 454 kts 289°
2026-05-06 05:39 -33.35298 149.00928 29665 ft 455 kts 289°
2026-05-06 05:39 -33.34279 148.97336 29846 ft 457 kts 289°
2026-05-06 05:40 -33.33255 148.93733 30127 ft 456 kts 289°
2026-05-06 05:40 -33.32236 148.90153 30434 ft 453 kts 289°
2026-05-06 05:40 -33.31223 148.86595 30709 ft 450 kts 289°
2026-05-06 05:40 -33.30212 148.83054 30947 ft 449 kts 289°
2026-05-06 05:41 -33.29215 148.79561 31145 ft 448 kts 289°
2026-05-06 05:41 -33.28208 148.76040 31339 ft 447 kts 289°
2026-05-06 05:41 -33.27203 148.72528 31537 ft 446 kts 289°
2026-05-06 05:41 -33.26197 148.69021 31719 ft 445 kts 289°
2026-05-06 05:42 -33.25195 148.65529 31919 ft 444 kts 289°
2026-05-06 05:42 -33.24194 148.62044 32102 ft 443 kts 289°
2026-05-06 05:42 -33.23193 148.58565 32256 ft 442 kts 289°
2026-05-06 05:42 -33.22194 148.55095 32411 ft 441 kts 289°
2026-05-06 05:43 -33.21197 148.51638 32597 ft 440 kts 289°
2026-05-06 05:43 -33.20204 148.48198 32783 ft 438 kts 289°
2026-05-06 05:43 -33.19212 148.44765 32955 ft 436 kts 289°
2026-05-06 05:43 -33.18222 148.41343 33080 ft 436 kts 289°
2026-05-06 05:44 -33.16238 148.34501 33243 ft 437 kts 289°
2026-05-06 05:44 -33.14284 148.27770 33361 ft 438 kts 289°
2026-05-06 05:45 -33.12421 148.20710 33487 ft 439 kts 284°
2026-05-06 05:45 -33.10940 148.13691 33606 ft 439 kts 284°
2026-05-06 05:46 -33.09442 148.06627 33717 ft 440 kts 284°
2026-05-06 05:46 -33.07925 147.99535 33807 ft 440 kts 285°
2026-05-06 05:47 -33.06403 147.92460 33892 ft 441 kts 285°
2026-05-06 05:47 -33.04873 147.85378 33956 ft 441 kts 285°
2026-05-06 05:48 -33.03336 147.78282 34040 ft 442 kts 285°
2026-05-06 05:48 -33.01795 147.71190 34110 ft 442 kts 285°
2026-05-06 05:49 -33.00249 147.64094 34161 ft 443 kts 285°
2026-05-06 05:49 -32.98708 147.57044 34202 ft 443 kts 285°
2026-05-06 05:50 -32.97151 147.49942 34252 ft 443 kts 285°
2026-05-06 05:50 -32.95587 147.42827 34283 ft 444 kts 285°
2026-05-06 05:51 -32.94020 147.35718 34328 ft 444 kts 285°
2026-05-06 05:51 -32.92450 147.28618 34375 ft 444 kts 285°
2026-05-06 05:52 -32.90884 147.21558 34419 ft 444 kts 285°
2026-05-06 05:52 -32.89303 147.14450 34453 ft 444 kts 285°
2026-05-06 05:53 -32.87718 147.07343 34480 ft 444 kts 285°
2026-05-06 05:53 -32.86129 147.00238 34519 ft 444 kts 285°
2026-05-06 05:54 -32.84535 146.93130 34552 ft 444 kts 285°
2026-05-06 05:54 -32.82948 146.86078 34577 ft 444 kts 285°
2026-05-06 05:55 -32.81347 146.78982 34608 ft 444 kts 285°
2026-05-06 05:55 -32.79738 146.71873 34629 ft 444 kts 285°
2026-05-06 05:56 -32.78141 146.64831 34670 ft 444 kts 285°
2026-05-06 05:56 -32.76530 146.57754 34704 ft 444 kts 285°
2026-05-06 05:57 -32.74915 146.50677 34732 ft 443 kts 285°
2026-05-06 05:57 -32.73296 146.43603 34770 ft 443 kts 285°
2026-05-06 05:58 -32.71675 146.36539 34795 ft 443 kts 285°
2026-05-06 05:58 -32.70050 146.29478 34827 ft 442 kts 285°
2026-05-06 05:59 -32.68434 146.22476 34866 ft 442 kts 285°
2026-05-06 05:59 -32.66804 146.15431 34885 ft 442 kts 285°
2026-05-06 06:00 -32.65172 146.08399 34922 ft 442 kts 285°
2026-05-06 06:00 -32.63537 146.01370 34953 ft 441 kts 286°
2026-05-06 06:01 -32.61899 145.94353 34975 ft 441 kts 286°
2026-05-06 06:01 -32.60272 145.87396 35001 ft 440 kts 286°
2026-05-06 06:02 -32.58629 145.80396 35009 ft 440 kts 286°
2026-05-06 06:02 -32.56984 145.73404 35035 ft 440 kts 286°
2026-05-06 06:03 -32.55336 145.66416 35048 ft 440 kts 286°
2026-05-06 06:03 -32.53681 145.59422 35042 ft 440 kts 286°
2026-05-06 06:04 -32.52024 145.52434 35070 ft 440 kts 286°
2026-05-06 06:04 -32.50373 145.45493 35068 ft 440 kts 286°
2026-05-06 06:05 -32.48707 145.38507 35052 ft 441 kts 286°
2026-05-06 06:05 -32.47036 145.31518 35075 ft 440 kts 286°
2026-05-06 06:06 -32.45361 145.24531 35072 ft 441 kts 286°
2026-05-06 06:06 -32.43968 145.18735 35064 ft 441 kts 286°
2026-05-06 06:07 -32.42013 145.10619 35072 ft 441 kts 286°
2026-05-06 06:07 -32.40602 145.04778 35073 ft 441 kts 286°
2026-05-06 06:08 -32.38921 144.97841 35087 ft 441 kts 286°
2026-05-06 06:08 -32.37228 144.90867 35099 ft 441 kts 286°
2026-05-06 06:09 -32.35531 144.83895 35106 ft 441 kts 286°
2026-05-06 06:09 -32.33828 144.76921 35115 ft 441 kts 286°
2026-05-06 06:10 -32.32122 144.69951 35131 ft 441 kts 286°
2026-05-06 06:10 -32.30412 144.62982 35133 ft 441 kts 286°
2026-05-06 06:11 -32.28698 144.56017 35138 ft 441 kts 286°
2026-05-06 06:11 -32.26981 144.49055 35146 ft 441 kts 286°
2026-05-06 06:12 -32.25260 144.42096 35149 ft 441 kts 286°
2026-05-06 06:12 -32.23545 144.35183 35143 ft 442 kts 286°
2026-05-06 06:13 -32.21816 144.28227 35182 ft 441 kts 286°
2026-05-06 06:13 -32.20081 144.21265 35178 ft 441 kts 286°
2026-05-06 06:14 -32.18346 144.14319 35163 ft 442 kts 286°
2026-05-06 06:14 -32.16605 144.07371 35161 ft 442 kts 286°
2026-05-06 06:15 -32.14870 144.00463 35199 ft 441 kts 286°
2026-05-06 06:15 -32.13119 143.93511 35201 ft 441 kts 286°
2026-05-06 06:16 -32.11366 143.86567 35213 ft 441 kts 286°
2026-05-06 06:16 -32.09610 143.79625 35213 ft 442 kts 286°
2026-05-06 06:17 -32.07849 143.72687 35225 ft 441 kts 286°
2026-05-06 06:17 -32.06095 143.65788 35221 ft 442 kts 287°
2026-05-06 06:18 -32.04328 143.58854 35217 ft 442 kts 287°
2026-05-06 06:18 -32.02555 143.51918 35241 ft 441 kts 287°
2026-05-06 06:19 -32.00777 143.44994 35249 ft 441 kts 287°
2026-05-06 06:19 -31.98991 143.38063 35241 ft 442 kts 287°
2026-05-06 06:20 -31.97205 143.31147 35235 ft 442 kts 287°
2026-05-06 06:20 -31.95426 143.24268 35254 ft 441 kts 287°
2026-05-06 06:21 -31.93633 143.17354 35256 ft 441 kts 287°
2026-05-06 06:21 -31.91836 143.10439 35282 ft 441 kts 287°
2026-05-06 06:22 -31.90033 143.03518 35260 ft 441 kts 287°
2026-05-06 06:22 -31.88228 142.96610 35258 ft 442 kts 287°
2026-05-06 06:23 -31.86419 142.89700 35282 ft 442 kts 287°
2026-05-06 06:23 -31.84605 142.82793 35291 ft 441 kts 287°
2026-05-06 06:24 -31.82803 142.75943 35260 ft 442 kts 287°
2026-05-06 06:24 -31.80982 142.69038 35268 ft 442 kts 287°
2026-05-06 06:25 -31.79155 142.62132 35287 ft 442 kts 287°
2026-05-06 06:26 -31.76412 142.51788 35297 ft 442 kts 287°
2026-05-06 06:26 -31.74587 142.44929 35306 ft 442 kts 287°
2026-05-06 06:27 -31.72748 142.38035 35318 ft 442 kts 287°
2026-05-06 06:27 -31.70903 142.31132 35326 ft 442 kts 287°
2026-05-06 06:28 -31.69056 142.24239 35335 ft 442 kts 287°
2026-05-06 06:28 -31.67217 142.17392 35334 ft 442 kts 287°
2026-05-06 06:29 -31.65362 142.10502 35339 ft 442 kts 287°
2026-05-06 06:29 -31.63504 142.03619 35324 ft 443 kts 287°
2026-05-06 06:30 -31.61641 141.96734 35328 ft 443 kts 287°
2026-05-06 06:30 -31.59774 141.89847 35347 ft 443 kts 287°
2026-05-06 06:31 -31.57914 141.83007 35345 ft 443 kts 287°
2026-05-06 06:31 -31.56039 141.76127 35351 ft 443 kts 287°
2026-05-06 06:32 -31.54159 141.69242 35362 ft 443 kts 287°
2026-05-06 06:32 -31.52275 141.62361 35358 ft 443 kts 287°
2026-05-06 06:33 -31.50388 141.55483 35368 ft 443 kts 287°
2026-05-06 06:33 -31.48498 141.48613 35384 ft 443 kts 287°
2026-05-06 06:34 -31.46603 141.41737 35381 ft 443 kts 287°
2026-05-06 06:34 -31.44702 141.34860 35379 ft 444 kts 287°
2026-05-06 06:35 -31.42810 141.28028 35408 ft 443 kts 287°
2026-05-06 06:35 -31.40903 141.21158 35415 ft 443 kts 287°
2026-05-06 06:36 -31.38993 141.14291 35416 ft 444 kts 287°
2026-05-06 06:36 -31.37076 141.07415 35431 ft 444 kts 287°
2026-05-06 06:37 -31.35159 141.00557 35404 ft 444 kts 287°
2026-05-06 06:37 -31.33235 140.93723 35432 ft 444 kts 288°
2026-05-06 06:38 -31.31293 140.86858 35412 ft 444 kts 288°
2026-05-06 06:38 -31.29348 140.79992 35438 ft 444 kts 288°
2026-05-06 06:39 -31.27415 140.73182 35449 ft 444 kts 288°
2026-05-06 06:39 -31.25467 140.66331 35450 ft 444 kts 288°
2026-05-06 06:40 -31.23516 140.59482 35467 ft 444 kts 288°
2026-05-06 06:40 -31.21561 140.52638 35451 ft 444 kts 288°
2026-05-06 06:41 -31.19601 140.45791 35482 ft 444 kts 288°
2026-05-06 06:41 -31.17650 140.38993 35479 ft 444 kts 288°
2026-05-06 06:42 -31.15681 140.32144 35478 ft 444 kts 288°
2026-05-06 06:42 -31.13707 140.25295 35477 ft 444 kts 288°
2026-05-06 06:43 -31.11733 140.18460 35479 ft 444 kts 288°
2026-05-06 06:43 -31.09756 140.11632 35482 ft 445 kts 288°
2026-05-06 06:44 -31.07785 140.04838 35491 ft 444 kts 288°
2026-05-06 06:44 -31.05794 139.97993 35491 ft 445 kts 288°
2026-05-06 06:45 -31.03803 139.91160 35506 ft 445 kts 288°
2026-05-06 06:45 -31.01811 139.84340 35493 ft 445 kts 288°
2026-05-06 06:46 -30.99812 139.77512 35486 ft 445 kts 288°
2026-05-06 06:46 -30.97824 139.70737 35516 ft 445 kts 288°
2026-05-06 06:47 -30.95815 139.63904 35525 ft 445 kts 288°
2026-05-06 06:47 -30.93804 139.57080 35528 ft 445 kts 288°
2026-05-06 06:48 -30.91789 139.50258 35525 ft 445 kts 288°
2026-05-06 06:48 -30.89783 139.43478 35523 ft 445 kts 288°
2026-05-06 06:49 -30.87760 139.36660 35523 ft 445 kts 288°
2026-05-06 06:49 -30.85733 139.29840 35529 ft 445 kts 288°
2026-05-06 06:50 -30.83701 139.23020 35529 ft 445 kts 288°
2026-05-06 06:50 -30.81668 139.16213 35544 ft 445 kts 288°
2026-05-06 06:51 -30.79631 139.09405 35555 ft 446 kts 288°
2026-05-06 06:51 -30.77599 139.02627 35566 ft 445 kts 288°
2026-05-06 06:52 -30.75556 138.95828 35578 ft 445 kts 288°
2026-05-06 06:52 -30.73506 138.89021 35559 ft 446 kts 288°
2026-05-06 06:53 -30.71453 138.82221 35567 ft 446 kts 288°
2026-05-06 06:53 -30.69395 138.75418 35561 ft 446 kts 288°
2026-05-06 06:54 -30.67349 138.68664 35570 ft 446 kts 288°
2026-05-06 06:54 -30.65281 138.61854 35603 ft 446 kts 288°
2026-05-06 06:55 -30.63213 138.55060 35617 ft 446 kts 288°
2026-05-06 06:55 -30.61139 138.48258 35621 ft 446 kts 288°
2026-05-06 06:56 -30.58902 138.41581 35620 ft 447 kts 294°
2026-05-06 06:56 -30.56244 138.35032 35624 ft 447 kts 294°
2026-05-06 06:57 -30.53588 138.28500 35626 ft 448 kts 294°
2026-05-06 06:57 -30.50940 138.21962 35649 ft 448 kts 294°
2026-05-06 06:58 -30.48740 138.16520 35635 ft 448 kts 294°
2026-05-06 06:58 -30.46093 138.09979 35659 ft 448 kts 294°
2026-05-06 06:59 -30.43443 138.03443 35660 ft 448 kts 294°
2026-05-06 06:59 -30.40805 137.96950 35661 ft 448 kts 294°
2026-05-06 07:00 -30.38144 137.90411 35677 ft 448 kts 294°
2026-05-06 07:00 -30.35481 137.83878 35672 ft 448 kts 294°
2026-05-06 07:01 -30.32818 137.77355 35685 ft 448 kts 294°
2026-05-06 07:01 -30.30148 137.70831 35689 ft 449 kts 294°
2026-05-06 07:02 -30.27473 137.64302 35699 ft 448 kts 294°
2026-05-06 07:02 -30.24814 137.57826 35696 ft 449 kts 294°
2026-05-06 07:03 -30.22135 137.51310 35696 ft 449 kts 294°
2026-05-06 07:03 -30.19449 137.44789 35711 ft 448 kts 294°
2026-05-06 07:04 -30.16761 137.38277 35709 ft 449 kts 294°
2026-05-06 07:04 -30.14071 137.31770 35720 ft 448 kts 294°
2026-05-06 07:05 -30.11380 137.25272 35727 ft 449 kts 294°
2026-05-06 07:05 -30.08694 137.18797 35719 ft 449 kts 294°
2026-05-06 07:06 -30.05994 137.12299 35694 ft 450 kts 294°
2026-05-06 07:06 -30.03287 137.05797 35721 ft 449 kts 294°
2026-05-06 07:07 -30.00575 136.99294 35731 ft 449 kts 294°
2026-05-06 07:07 -29.97860 136.92792 35717 ft 449 kts 294°
2026-05-06 07:08 -29.95162 136.86344 35713 ft 450 kts 294°
2026-05-06 07:08 -29.92437 136.79842 35717 ft 450 kts 294°
2026-05-06 07:09 -29.89711 136.73352 35759 ft 449 kts 294°
2026-05-06 07:09 -29.86987 136.66873 35762 ft 449 kts 294°
2026-05-06 07:10 -29.84257 136.60392 35761 ft 449 kts 294°
2026-05-06 07:10 -29.81523 136.53915 35766 ft 449 kts 294°
2026-05-06 07:11 -29.78788 136.47445 35756 ft 450 kts 294°
2026-05-06 07:11 -29.76062 136.41006 35778 ft 449 kts 294°
2026-05-06 07:12 -29.73316 136.34529 35784 ft 450 kts 294°
2026-05-06 07:12 -29.70571 136.28065 35783 ft 450 kts 294°
2026-05-06 07:13 -29.67816 136.21597 35802 ft 450 kts 295°
2026-05-06 07:13 -29.65049 136.15153 35808 ft 450 kts 295°
2026-05-06 07:14 -29.62271 136.08700 35827 ft 450 kts 295°
2026-05-06 07:14 -29.59514 136.02300 35831 ft 450 kts 295°
2026-05-06 07:15 -29.56735 135.95857 35836 ft 450 kts 295°
2026-05-06 07:15 -29.53952 135.89413 35842 ft 450 kts 295°
2026-05-06 07:16 -29.51168 135.82978 35845 ft 450 kts 295°
2026-05-06 07:16 -29.48380 135.76544 35859 ft 450 kts 295°
2026-05-06 07:17 -29.45587 135.70109 35859 ft 450 kts 295°
2026-05-06 07:17 -29.42791 135.63678 35876 ft 450 kts 295°
2026-05-06 07:18 -29.40006 135.57284 35856 ft 450 kts 295°
2026-05-06 07:18 -29.37201 135.50855 35857 ft 451 kts 295°
2026-05-06 07:19 -29.34395 135.44433 35878 ft 450 kts 295°
2026-05-06 07:19 -29.31582 135.38006 35875 ft 451 kts 295°
2026-05-06 07:20 -29.28768 135.31585 35878 ft 451 kts 295°
2026-05-06 07:20 -29.25949 135.25166 35890 ft 450 kts 295°
2026-05-06 07:21 -29.23146 135.18792 35890 ft 451 kts 295°
2026-05-06 07:21 -29.20319 135.12375 35887 ft 451 kts 295°
2026-05-06 07:22 -29.17496 135.05978 35889 ft 451 kts 295°
2026-05-06 07:22 -29.14665 134.99571 35894 ft 451 kts 295°
2026-05-06 07:23 -29.11831 134.93170 35891 ft 451 kts 295°
2026-05-06 07:23 -29.08998 134.86780 35915 ft 450 kts 295°
2026-05-06 07:24 -29.06155 134.80379 35915 ft 450 kts 295°
2026-05-06 07:24 -29.03314 134.73992 35921 ft 451 kts 295°
2026-05-06 07:25 -29.00486 134.67643 35929 ft 451 kts 295°
2026-05-06 07:25 -28.97638 134.61257 35942 ft 450 kts 295°
2026-05-06 07:26 -28.94787 134.54879 35940 ft 451 kts 295°
2026-05-06 07:26 -28.91928 134.48500 35944 ft 451 kts 295°
2026-05-06 07:27 -28.89086 134.42167 35966 ft 451 kts 295°
2026-05-06 07:27 -28.86221 134.35791 35968 ft 451 kts 295°